1274227228813,77.7735
1274227288813,77.6592
1274227348813,77.7578
1274227408813,77.6693
1274227468813,77.5801
1274227528813,77.5066
1274227588813,77.6503
1274227648813,77.7193
1274227708813,77.6388
1274227768813,77.6425
1274227828813,77.6952
1274227888813,77.8889
1274227948813,77.6863
1274228008813,77.6069
1274228068813,77.7154
1274228128813,77.8992
1274228188813,77.7433
1274228248813,77.7108
1274228308813,77.6790
1274228368813,77.7963
1274228428813,77.8358
1274228488813,77.6107
1274228548813,77.8871
1274228608813,77.6471
1274228668813,77.8504
1274228728813,77.8036
1274228788813,77.7828
1274228848813,77.7197
1274228908813,77.7081
1274228968813,77.7891
1274229028813,77.6558
1274229088813,77.6848
1274229148813,77.6296
1274229208813,77.6497
1274229268813,77.7681
1274229328813,77.7737
1274229388813,77.7297
1274229448813,77.7828
1274229508813,77.7109
1274229568813,77.8015
1274229628813,77.8899
1274229688813,77.6918
1274229748813,77.8054
1274229808813,77.7812
1274229868813,77.7539
1274229928813,77.7556
1274229988813,77.7087
1274230048813,77.6241
1274230108813,77.7858
1274230168813,77.6999
1274230228813,77.5422
1274230288813,77.7144
1274230348813,77.7837
1274230408813,77.7240
1274230468813,77.4719
1274230528813,77.5815
1274230588813,77.7687
1274230648813,77.6479
1274230708813,77.5724
1274230768813,77.3774
1274230828824,77.6475
1274230888824,77.5005
1274230948824,77.6407
1274231008824,77.4624
1274231068824,77.6815
1274231128824,77.6181
1274231188824,77.5384
1274231248824,77.6140
1274231308824,77.4831
1274231368824,77.6034
1274231428824,77.4408
1274231488824,77.5898
1274231548824,77.1510
1274231608824,77.5959
1274231668824,77.5218
1274231728824,77.3540
1274231788824,77.5231
1274231848824,77.5459
1274231908824,77.4046
1274231968824,77.5617
1274232028824,77.4469
1274232088824,77.7367
1274232148824,77.4178
1274232208824,77.4450
1274232268824,77.4840
1274232328824,77.4783
1274232388824,77.5957
1274232448824,77.3849
1274232508824,77.4339
1274232568824,77.4858
1274232628824,77.5058
1274232688824,77.2931
1274232748824,77.5417
1274232808824,77.4352
1274232868824,77.4842
1274232928824,77.5333
1274232988824,77.4217
1274233048824,77.5697
1274233108824,77.4429
1274233168824,77.4464
1274233228824,77.4098
1274233288824,77.4129
1274233348824,77.3859
1274233408824,77.5139
1274233468824,77.5509
1274233528824,77.3535
1274233588824,77.5635
1274233648824,77.4507
1274233708824,77.5124
1274233768824,77.3235
1274233828824,77.5257
1274233888824,77.4197
1274233948824,77.4455
1274234008824,77.5518
1274234068824,77.3330
1274234128824,77.5017
1274234188824,77.5705
1274234248824,77.7140
1274234308824,77.5591
1274234368824,77.7249
1274234428835,77.5187
1274234488835,77.5760
1274234548835,77.5755
1274234608835,77.6051
1274234668835,77.5140
1274234728835,77.5038
1274234788835,77.4660
1274234848835,77.6194
1274234908835,77.4200
1274234968835,77.5490
1274235028835,77.4287
1274235088835,77.7840
1274235148835,77.5829
1274235208835,77.6259
1274235268835,77.6341
1274235328835,77.4304
1274235388835,77.3509
1274235448835,77.4822
1274235508835,77.4535
1274235568835,77.7249
1274235628835,77.3650
1274235688835,77.6470
1274235748835,77.5489
1274235808835,77.6970
1274235868835,77.5296
1274235928835,77.2420
1274235988835,77.7008
1274236048835,77.5678
1274236108835,77.5791
1274236168835,77.4478
1274236228835,77.5406
1274236288835,77.8170
1274236348835,77.5721
1274236408835,77.5226
1274236468835,77.6987
1274236528835,77.3864
1274236588835,77.5912
1274236648835,77.5660
1274236708835,77.8101
1274236768835,77.5915
1274236828835,77.6520
1274236888835,77.3775
1274236948835,77.4221
1274237008835,77.5003
1274237068835,77.6923
1274237128835,77.6311
1274237188835,77.6518
1274237248835,77.6060
1274237308835,77.6833
1274237368835,77.6645
1274237428835,77.5765
1274237488835,77.5889
1274237548835,77.8708
1274237608835,77.5791
1274237668835,77.5120
1274237728835,77.5864
1274237788835,77.5875
1274237848835,77.5949
1274237908835,77.6986
1274237968835,77.6011
1274238028845,77.5033
1274238088845,77.6987
1274238148845,77.7217
1274238208845,77.5443
1274238268845,77.5228
1274238328845,77.7796
1274238388845,77.6135
1274238448845,77.8079
1274238508845,77.6354
1274238568845,77.6887
1274238628845,77.8362
1274238688845,77.5484
1274238748845,77.8574
1274238808845,77.7719
1274238868845,77.6856
1274238928845,77.6652
1274238988845,77.6356
1274239048845,77.6752
1274239108845,77.8430
1274239168845,77.6102
1274239228845,77.7673
1274239288845,77.7779
1274239348845,77.6095
1274239408845,77.7501
1274239468845,77.7399
1274239528845,77.7139
1274239588845,77.7601
1274239648845,77.7285
1274239708845,77.7180
1274239768845,77.8140
1274239828845,77.5589
1274239888845,77.7852
1274239948845,77.6385
1274240008845,77.8258
1274240068845,77.8898
1274240128845,77.7617
1274240188845,77.7124
1274240248845,77.8123
1274240308845,77.8610
1274240368845,77.9654
1274240428845,77.7932
1274240488845,77.7407
1274240548845,77.8325
1274240608845,77.7465
1274240668845,77.8588
1274240728845,77.7735
1274240788845,77.9461
1274240848845,77.7955
1274240908845,77.9378
1274240968845,77.8669
1274241028845,77.8698
1274241088845,77.8067
1274241148845,77.9250
1274241208845,77.9118
1274241268845,77.7263
1274241328845,77.7514
1274241388845,77.8919
1274241448845,77.8466
1274241508845,77.6497
1274241568845,77.7843
1274241628855,77.8604
1274241688855,77.9963
1274241748855,77.9358
1274241808855,77.9594
1274241868855,77.8607
1274241928855,77.9795
1274241988855,77.8028
1274242048855,77.8676
1274242108855,77.8838
1274242168855,77.8105
1274242228855,77.8136
1274242288855,77.8148
1274242348855,77.6214
1274242408855,77.7388
1274242468855,77.6503
1274242528855,77.7342
1274242588855,77.8963
1274242648855,77.8822
1274242708855,77.7065
1274242768855,77.8262
1274242828855,77.7500
1274242888855,77.9650
1274242948855,77.8219
1274243008855,77.6518
1274243068855,78.0103
1274243128855,77.6519
1274243188855,77.7572
1274243248855,77.8385
1274243308855,77.7527
1274243368855,77.6980
1274243428855,77.9616
1274243488855,77.6251
1274243548855,77.6073
1274243608855,77.8015
1274243668855,77.8274
1274243728855,77.7370
1274243788855,77.7911
1274243848855,77.8094
1274243908855,77.6509
1274243968855,77.8934
1274244028855,77.5911
1274244088855,77.7669
1274244148855,77.7543
1274244208855,77.7743
1274244268855,77.6667
1274244328855,77.8065
1274244388855,77.7450
1274244448855,77.6514
1274244508855,77.6066
1274244568855,77.7742
1274244628855,77.8505
1274244688855,77.7147
1274244748855,77.6428
1274244808855,77.6609
1274244868855,77.7555
1274244928855,77.6788
1274244988855,77.5492
1274245048855,77.7946
1274245108855,77.6965
1274245168855,77.7591
1274245228865,77.6060
1274245288865,77.7654
1274245828865,77.7906
1274245888865,77.5631
1274245948865,77.5767
1274246008865,77.4847
1274246068865,77.4924
1274246128865,77.5320
1274246188865,77.6127
1274246248865,77.4702
1274246308865,77.4978
1274246368865,77.3734
1274246428865,77.5614
1274246488865,77.6066
1274246548865,77.5137
1274246608865,77.4096
1274246668865,77.5928
1274246728865,77.3336
1274246788865,77.5597
1274246848865,77.7763
1274246908865,77.4661
1274246968865,77.3685
1274247028865,77.4569
1274247088865,77.4278
1274247148865,77.4856
1274247208865,77.2929
1274247268865,77.5509
1274247328865,77.4962
1274247388865,77.4258
1274247448865,77.2395
1274247508865,77.5288
1274247568865,77.4548
1274247628865,77.4342
1274247688865,77.3729
1274247748865,77.4391
1274247808865,77.3592
1274247868865,77.3503
1274247928865,77.3490
1274247988865,77.4219
1274248048865,77.3249
1274248108865,77.4648
1274248168865,77.2237
1274248228865,77.2126
1274248288865,77.5091
1274248348865,77.3243
1274248408865,77.5331
1274248468865,77.7772
1274248528865,77.3390
1274248588865,77.5479
1274248648865,77.2882
1274248708865,77.2423
1274248768865,77.2713
1274248828874,77.2516
1274248888874,77.2109
1274248948874,77.4208
1274249008874,77.1760
1274249068874,77.2270
1274249128874,77.3265
1274249188874,77.3074
1274249248874,77.2318
1274249308874,77.2514
1274249368874,77.2029
1274249428874,77.2540
1274249488875,77.1709
1274249548874,77.3676
1274249608874,77.1480
1274249668874,77.1917
1274249728874,77.3104
1274249788875,77.1897
1274249848875,77.2290
1274249908875,77.2591
1274249968875,77.1931
1274250028875,77.3386
1274250088875,77.1578
1274250148875,77.1954
1274250208874,77.1118
1274250268874,77.2861
1274250328874,77.3501
1274250388874,77.0809
1274250448874,77.1133
1274250508874,77.0571
1274250568874,77.1422
1274250628874,77.2587
1274250688874,77.0780
1274250748874,77.1511
1274250808875,77.0366
1274250868874,77.0752
1274250928874,77.0050
1274250988874,77.1551
1274251048874,77.1554
1274251108874,77.0495
1274251168875,77.0900
1274251228875,76.9612
1274251288875,77.0098
1274251348875,77.0464
1274251408875,77.1458
1274251468875,77.0430
1274251528874,76.8129
1274251588874,77.1959
1274251648874,77.1539
1274251708874,76.9797
1274251768874,77.0333
1274251828874,77.2162
1274251888874,77.0511
1274251948874,77.0946
1274252008874,77.1404
1274252068874,77.2370
1274252128874,77.0031
1274252188875,77.0600
1274252248874,77.1433
1274252308874,77.1096
1274252368874,77.1601
1274252428884,77.1969
1274252488884,77.1297
1274252548884,77.2039
1274252608884,77.0279
1274252668884,77.0260
1274252728884,77.0587
1274252788884,76.9915
1274252848884,77.0674
1274252908884,77.1924
1274252968884,77.0873
1274253028884,77.0559
1274253088884,77.1712
1274253148884,76.9068
1274253208884,77.3468
1274253268884,76.9738
1274253328884,76.9479
1274253388884,77.0946
1274253448884,77.0962
1274253508884,77.1358
1274253568884,77.0666
1274253628884,77.1508
1274253688884,77.0662
1274253748884,77.1064
1274253808884,76.9642
1274253868884,77.1345
1274253928884,77.1683
1274253988884,77.0494
1274254048884,77.2405
1274254108884,76.9309
1274254168884,76.8743
1274254228884,77.1181
1274254288884,77.1829
1274254348884,76.9995
1274254408884,77.0915
1274254468884,77.0181
1274254528884,77.0905
1274254588884,76.9958
1274254648884,77.1562
1274254708884,77.0387
1274254768884,76.9812
1274254828884,77.0231
1274254888884,77.1041
1274254948884,77.0490
1274255008884,77.0636
1274255068884,77.0057
1274255128884,76.9060
1274255188884,77.0904
1274255248884,77.0237
1274255308884,76.9491
1274255368884,76.9539
1274255428884,77.1134
1274255488884,77.1079
1274255548884,76.9532
1274255608884,76.9548
1274255668884,77.1164
1274255728884,77.0369
1274255788884,77.1297
1274255848884,77.2185
1274255908884,77.0621
1274255968884,77.0223
1274256028894,77.0611
1274256088894,77.0222
1274256148894,77.0884
1274256208894,77.1129
1274256268894,77.0897
1274256328894,77.0741
1274256388894,77.0177
1274256448894,77.0210
1274256508894,77.1038
1274256568894,77.1293
1274256628894,77.1198
1274256688894,77.0721
1274256748894,77.1906
1274256808894,77.2189
1274256868894,77.2200
1274256928894,76.9565
1274256988894,77.0953
1274257048894,77.2052
1274257108894,77.0190
1274257168894,77.2015
1274257228894,77.0330
1274257288894,77.1279
1274257348894,76.9966
1274257408894,76.9513
1274257468894,77.0348
1274257528894,77.1876
1274257588894,77.1146
1274257648894,77.0272
1274257708894,77.1996
1274257768894,77.2261
1274257828894,77.1239
1274257888894,77.1856
1274257948894,77.1731
1274258008894,77.3365
1274258068894,77.1399
1274258128894,77.0768
1274258188894,77.0338
1274258248894,76.9844
1274258308894,77.1298
1274258368894,77.3132
1274258428894,77.3281
1274258488894,77.0974
1274258548894,77.1594
1274258608894,77.1501
1274258668894,77.1763
1274258728894,77.1790
1274258788894,77.2620
1274258848894,77.1149
1274258908894,77.0948
1274258968894,77.1698
1274259028894,77.2600
1274259088894,77.4202
1274259148894,77.0909
1274259208894,77.1942
1274259268894,77.2406
1274259328894,77.1603
1274259388894,77.3311
1274259448894,77.2850
1274259508894,77.1316
1274259568894,77.3088
1274259628903,77.1926
1274259688903,77.2679
1274259748903,77.3179
1274259808903,77.2505
1274259868903,77.3021
1274259928903,77.2264
1274259988903,77.2352
1274260048903,77.1453
1274260108903,77.2222
1274260168903,77.1042
1274260228903,77.2008
1274260288903,77.1294
1274260348903,77.2186
1274260408903,77.3489
1274260468903,77.2609
1274260528903,77.1747
1274260588903,77.1439
1274260648903,77.1390
1274260708903,77.2686
1274260768903,77.2930
1274260828903,77.2362
1274260888903,77.3180
1274260948903,77.3700
1274261008903,77.2768
1274261068903,77.2766
1274261128903,77.3952
1274261188903,77.3380
1274261248903,77.4809
1274261308903,77.5301
1274261368903,77.3160
1274261428903,77.3839
1274261488903,77.5148
1274261548903,77.3371
1274261608903,77.4955
1274261668903,77.3827
1274261728903,77.2121
1274261788903,77.1360
1274261848903,77.2964
1274261908903,77.5423
1274261968903,77.4431
1274262028903,77.2958
1274262088903,77.5538
1274262148903,77.5139
1274262208903,77.4883
1274262268903,77.3823
1274262328903,77.5182
1274262388903,77.3977
1274262448903,77.4836
1274262508903,77.3287
1274262568903,77.3729
1274262628903,77.5175
1274262688903,77.4343
1274262748903,77.6811
1274262808903,77.4949
1274262868903,77.2332
1274262928903,77.4713
1274262988903,77.4839
1274263048903,77.3885
1274263108903,77.3566
1274263168903,77.2847
1274263228913,77.2979
1274263288913,77.3425
1274263348913,77.3011
1274263408913,77.4831
1274263468913,77.4705
1274263528913,77.4652
1274263588913,77.4327
1274263648913,77.6482
1274263708913,77.3726
1274263768913,77.3272
1274263828913,77.6712
1274263888913,77.3840
1274263948913,77.4785
1274264008913,77.4246
1274264068913,77.5169
1274264128913,77.3926
1274264188913,77.4644
1274264248913,77.5363
1274264308913,77.4306
1274264368913,77.4533
1274264428913,77.4445
1274264488913,77.5177
1274264548913,77.4269
1274264608913,77.4970
1274264668913,77.5459
1274264728913,77.4133
1274264788913,77.4729
1274264848913,77.4091
1274264908913,77.5154
1274264968913,77.4960
1274265028913,77.6607
1274265088913,77.5324
1274265148913,77.3537
1274265208913,77.6540
1274265268913,77.4833
1274265328913,77.5638
1274265388913,77.7629
1274265448913,77.5718
1274265508913,77.5874
1274265568913,77.6744
1274265628913,77.6093
1274265688913,77.5249
1274265748913,77.5706
1274265808913,77.4654
1274265868913,77.5207
1274265928913,77.6696
1274265988913,77.4251
1274266048913,77.5192
1274266108913,77.5573
1274266168913,77.6908
1274266228913,77.6134
1274266288913,77.4664
1274266348913,77.7289
1274266408913,77.6147
1274266468913,77.5123
1274266528913,77.4249
1274266588913,77.5598
1274266648913,77.6010
1274266708913,77.4730
1274266768913,77.5910
1274266828923,77.6697
1274266888923,77.2982
1274266948923,77.6453
1274267008923,77.6001
1274267068922,77.6506
1274267128922,77.5468
1274267188922,77.6159
1274267248922,77.5515
1274267308922,77.3467
1274267368923,77.5690
1274267428923,77.4225
1274267488923,77.7312
1274267548923,77.4732
1274267608923,77.6300
1274267668923,77.7947
1274267728923,77.6257
1274267788923,77.5031
1274267848923,77.5783
1274267908923,77.6028
1274267968923,77.5516
1274268028923,77.4914
1274268088923,77.7657
1274268148923,77.5688
1274268208923,77.4757
1274268268923,77.5211
1274268328923,77.7180
1274268388922,77.6259
1274268448922,77.7016
1274268508922,77.5605
1274268568922,77.7006
1274268628922,77.7298
1274268688922,77.7050
1274268748923,77.6157
1274268808923,77.5790
1274268868923,77.6215
1274268928923,77.5674
1274268988923,77.5495
1274269048923,77.6532
1274269108923,77.6603
1274269168923,77.6330
1274269228923,77.6033
1274269288923,77.7185
1274269348923,77.5285
1274269408923,77.6978
1274269468923,77.7265
1274269528923,77.4644
1274269588923,77.7144
1274269648923,77.6030
1274269708923,77.5204
1274269768922,77.7739
1274269828922,77.8205
1274269888922,77.5983
1274269948922,77.7185
1274270008922,77.5477
1274270068923,77.5192
1274270128923,77.5926
1274270188923,77.7366
1274270248923,77.6729
1274270308923,77.4584
1274270368923,77.6052
1274270428932,77.6352
1274270488932,77.4567
1274270548932,77.6144
1274270608932,77.4399
1274270668932,77.7275
1274270728932,77.6841
1274270788932,77.4781
1274270848932,77.7184
1274270908932,77.6184
1274270968932,77.6282
1274271028932,77.5759
1274271088932,77.5677
1274271148932,77.7291
1274271208932,77.7100
1274271268932,77.7430
1274271328932,77.6379
1274271388932,77.6993
1274271448932,77.5988
1274271508932,77.7909
1274271568932,77.5128
1274271628932,77.7585
1274271688932,77.7535
1274271748932,77.6881
1274271808932,77.6402
1274271868932,77.5585
1274271928932,77.6503
1274271988932,77.5362
1274272048932,77.6864
1274272108932,77.6345
1274272168932,77.7155
1274272228932,77.7568
1274272288932,78.0352
1274272348932,77.6996
1274272408932,77.6981
1274272468932,77.5838
1274272528932,77.5356
1274272588932,77.8136
1274272648932,77.4706
1274272708932,77.6723
1274272768932,77.7799
1274272828932,77.8436
1274272888932,77.7186
1274272948932,77.6704
1274273008932,77.7436
1274273068932,77.7487
1274273128932,77.9012
1274273188932,77.7147
1274273248932,77.8847
1274273308932,77.7211
1274273368932,77.7056
1274273428932,77.7690
1274273488932,77.5566
1274273548932,77.7189
1274273608932,77.7278
1274273668932,77.7691
1274273728932,77.7093
1274273788932,77.7962
1274273848932,77.7358
1274273908932,77.7232
1274273968932,77.6701
1274274028941,77.6725
1274274088941,77.7689
1274274148941,77.9440
1274274208941,77.6092
1274274268941,77.7266
1274274328941,77.6483
1274274388941,77.8904
1274274448941,77.6388
1274274508941,77.5367
1274274568941,77.8066
1274274628941,77.9421
1274274688941,77.6815
1274274748941,77.6123
1274274808941,77.6019
1274274868941,77.7997
1274274928941,77.6073
1274274988941,77.7805
1274275048941,77.8167
1274275108941,77.8765
1274275168941,77.7228
1274275228941,77.6202
1274275288941,77.6961
1274275348941,77.5990
1274275408941,77.4360
1274275468941,77.8346
1274275528941,77.9323
1274275588941,77.7804
1274275648941,77.8098
1274275708941,77.9037
1274275768941,77.7391
1274275828941,77.8581
1274275888941,77.8068
1274275948941,77.9413
1274276008941,77.8000
1274276068941,77.7620
1274276128941,77.5898
1274276188941,77.7229
1274276248941,77.8475
1274276308941,77.8796
1274276368941,77.6513
1274276428941,77.8220
1274276488941,77.5829
1274276548941,77.6926
1274276608941,77.7380
1274276668941,77.7233
1274276728941,77.8322
1274276788941,77.6773
1274276848941,77.7051
1274276908941,77.8147
1274276968941,77.7253
1274277028941,77.6624
1274277088941,77.8008
1274277148941,77.7913
1274277208941,77.5328
1274277268941,77.9092
1274277328941,77.7868
1274277388941,77.5374
1274277448941,77.7480
1274277508941,77.8816
1274277568941,77.6573
1274277628951,77.7922
1274277688951,77.6708
1274277748951,77.9442
1274277808951,77.5880
1274277868950,77.8567
1274277928950,77.5779
1274277988950,77.7675
1274278048950,77.6664
1274278108950,77.6721
1274278168950,77.7646
1274278228950,77.6757
1274278288950,77.7733
1274278348951,77.6801
1274278408951,77.7063
1274278468951,77.7646
1274278528950,77.6871
1274278588950,77.8136
1274278648950,77.7665
1274278708951,77.6502
1274278768951,77.5848
1274278828951,77.6538
1274278888951,77.7273
1274278948951,77.6910
1274279008951,77.6139
1274279068951,77.8203
1274279128951,77.8261
1274279188951,77.7165
1274279248950,77.5668
1274279308950,77.7015
1274279368950,77.5667
1274279428950,77.6419
1274279488950,77.7691
1274279548950,77.8958
1274279608950,77.7333
1274279668950,77.6120
1274279728951,77.6616
1274279788951,77.7227
1274279848951,77.5993
1274279908950,77.6235
1274279968950,77.7602
1274280028950,77.6670
1274280088951,77.7472
1274280148951,77.6958
1274280208951,77.7987
1274280268951,77.8268
1274280328951,77.5632
1274280388951,77.8923
1274280448951,77.6599
1274280508951,77.6162
1274280568950,77.7528
1274280628950,77.7485
1274280688950,77.6056
1274280748950,77.7845
1274280808950,77.6910
1274280868950,77.7474
1274280928950,77.8197
1274280988950,77.7104
1274281048951,77.6800
1274281108951,77.8334
1274281168951,77.6049
1274281228960,77.5819
1274281288960,77.8910
1274281348960,77.7721
1274281408960,77.7208
1274281468960,77.9135
1274281528960,77.7534
1274281588960,77.6705
1274281648960,77.7678
1274281708960,77.7446
1274281768960,77.6674
1274281828960,77.6934
1274281888960,77.8673
1274281948960,77.7576
1274282008960,77.8253
1274282068960,77.6829
1274282128960,77.7540
1274282188960,77.7068
1274282248960,77.7152
1274282308960,77.7966
1274282368960,77.8367
1274282428960,77.9087
1274282488960,77.5868
1274282548960,77.8234
1274282608960,77.6905
1274282668960,77.6045
1274282728960,77.8041
1274282788960,77.6274
1274282848960,77.7066
1274282908960,77.5658
1274282968960,77.6173
1274283028960,77.4576
1274283088960,77.7083
1274283148960,77.7748
1274283208960,77.6524
1274283268960,77.6242
1274283328960,77.6800
1274283388960,77.7863
1274283448960,77.7181
1274283508960,77.8353
1274283568960,77.7606
1274283628960,77.6917
1274283688960,77.5587
1274283748960,77.6941
1274283808960,77.7318
1274283868960,77.7355
1274283928960,77.7277
1274283988960,77.8180
1274284048960,77.7951
1274284108960,77.6499
1274284168960,77.7175
1274284228960,77.7462
1274284288960,77.7556
1274284348960,77.6267
1274284408960,77.7214
1274284468960,77.6022
1274284528960,77.7415
1274284588960,77.5010
1274284648960,77.5665
1274284708960,77.7255
1274284768960,77.4795
1274284828969,77.7584
1274284888969,77.5010
1274284948969,77.6093
1274285008969,77.5806
1274285068969,77.5812
1274285128969,77.6182
1274285188969,77.5760
1274285248969,77.6742
1274285308969,77.6092
1274285368969,77.7130
1274285428969,77.5682
1274285488969,77.7689
1274285548969,77.5482
1274285608969,77.4549
1274285668969,77.4487
1274285728969,77.6017
1274285788969,77.6527
1274285848969,77.3155
1274285908969,77.6339
1274285968969,77.4510
1274286028969,77.6181
1274286088969,77.5675
1274286148969,77.4752
1274286208969,77.6006
1274286268969,77.4801
1274286328969,77.5739
1274286388969,77.4595
1274286448969,77.6364
1274286508969,77.3967
1274286568969,77.3913
1274286628969,77.5631
1274286688969,77.5211
1274286748969,77.6476
1274286808969,77.6183
1274286868969,77.4772
1274286928969,77.6287
1274286988969,77.5042
1274287048969,77.6095
1274287108969,77.6504
1274287168969,77.6619
1274287228969,77.5945
1274287288969,77.6108
1274287348969,77.5209
1274287408969,77.6210
1274287468969,77.4315
1274287528969,77.5611
1274287588969,77.7829
1274287648969,77.5962
1274287708969,77.5357
1274287768969,77.4453
1274287828969,77.5631
1274287888969,77.6536
1274287948969,77.4968
1274288008969,77.6288
1274288068969,77.5749
1274288128969,77.7119
1274288188969,77.6631
1274288248969,77.7162
1274288308969,77.6313
1274288368969,77.7391
1274288428978,77.7478
1274288488978,77.7802
1274288548978,77.7643
1274288608978,77.5439
1274288668978,77.8715
1274288728978,77.6931
1274288788978,77.5159
1274288848978,77.6750
1274288908978,77.7212
1274288968978,77.6036
1274289028978,77.7017
1274289088978,77.8376
1274289148978,77.6336
1274289208978,77.6682
1274289268978,77.7705
1274289328978,77.7602
1274289388978,77.8114
1274289448978,77.8831
1274289508978,77.7876
1274289568978,77.6463
1274289628978,77.9297
1274289688978,77.8576
1274289748978,77.6996
1274289808978,77.7364
1274289868978,77.8381
1274289928978,77.6337
1274289988978,77.8000
1274290048978,77.8299
1274290108978,77.8025
1274290168978,77.9227
1274290228978,77.7699
1274290288978,77.8874
1274290348978,77.6616
1274290408978,77.9147
1274290468978,77.8095
1274290528978,77.6938
1274290588978,77.6555
1274290648978,77.8495
1274290708978,77.8894
1274290768978,77.7325
1274290828978,77.7048
1274290888978,77.8007
1274290948978,77.8590
1274291008978,77.8790
1274291068978,77.7699
1274291128978,77.7971
1274291188978,77.8433
1274291248978,77.8308
1274291308978,77.6459
1274291368978,77.5733
1274291428978,77.8464
1274291488978,77.8295
1274291548978,77.7611
1274292508989,77.6875
1274292568989,77.6555
1274292628989,77.7406
1274292688989,77.7462
1274292748989,77.6203
1274292808989,77.8656
1274292868989,77.6805
1274292928989,77.9293
1274292988989,77.6274
1274293048989,77.6621
1274293108989,78.0392
1274293168989,77.8246
1274293228989,77.7579
1274293288989,77.7112
1274293348989,77.8745
1274293408989,77.6677
1274293468989,77.8509
1274293528989,77.7967
1274293588989,77.6855
1274293648989,77.5498
1274293708989,77.7679
1274293768989,77.6007
1274293828989,77.6408
1274293888989,77.6860
1274293948989,77.7482